Нижний Пяндж

Таджикистан     37°12′47″N   68°34′48″E
темп.,
°C
ветер,
м/с
пор.,
м/с
влажн.,
%
обл.,
%
осадки,
мм/ч
давл.,
гПа
погр.,
м
15 апреля, чт
чт1523:00+21юз2351100 0.0 101237
02:00+20юв2355100 0.0 101239
05:00+18в1163100 0.1 101313
08:00+19ююв235998 0.3 1015198
11:00+23сз1235100 0.6 1016898
14:00+25в1128100 0.0 10141609
17:00+25юв432681 0.0 10131597
20:00+21в34520 0.0 101459
16 апреля, пт
пт1623:00+19св22550 0.0 101415
02:00+17св35660 0.0 101476
05:00+16ссв33700 0.0 101443
08:00+18св34592 0.0 1016250
11:00+23св21442 0.0 1015795
14:00+27ссв22255 0.0 10132188
17:00+27ссв11209 0.0 10122355
20:00+24юв2227100 0.0 101211
17 апреля, сб
сб1723:00+21ю1134100 0.0 101211
02:00+20св223663 0.0 101213
05:00+17ссв33445 0.0 101224
08:00+20ссв233919 0.0 1014177
11:00+25ссв01290 0.0 1014915
14:00+28юз12211 0.0 10132831
17:00+28з541862 0.0 10123074
20:00+24юз451913 0.0 101352
18 апреля, вс
вс1823:00+23юз6925100 0.0 1014172
02:00+21зюз81328100 0.0 1015386
05:00+19зюз71130100 0.0 1017357
08:00+21зюз5102971 0.0 1020927
11:00+25зюз872171 0.0 10202805
14:00+26юз441813 0.0 10183161
17:00+26зюз23160 0.0 10162948
20:00+21в46353 0.0 101793
19 апреля, пн
пн1923:00+19ссв5745100 0.0 1017146
02:00+17ссв595126 0.0 1016175
05:00+15ссв47546 0.0 1016118
08:00+18ссв564515 0.0 1015290
11:00+24св343230 0.0 1013872
14:00+27всв3221100 0.0 10101756
17:00+27всв2218100 0.0 10091738
20:00+23св222699 0.0 100911